Voltar ao catálogo

STARLINK-35760

AtivoComunicaçõesVLEO
NORAD 66274·PAYLOAD·🇺🇸 United States

Lançado Oct 31, 2025 de Vandenberg Space Force Base

Loading…

Próximas Passagens (próximas 24 horas)

TLE

AtualizadoSource: CelesTrak SupGP

Época: Sep 14, 2026, 20:59 UTC

1 66274C 25247K   26257.87479167  .00039068  00000+0  11550-2 0  2572
2 66274  53.1604  29.6835 0001249  80.0130 194.6290 15.34350463    13

Acompanhe STARLINK-35760 em tempo real com AllMySat

Download on the App Store